Location: Joffre
(52.3362°N, 113.5373°W)
Time: 11:01:57
(UTC+00:00)

N. Korean satellite - Pass Details

Date: 02 December 2021
Orbit: 447 x 490 km, 97.3° (Epoch: 27 January)

Event Time Altitude Azimuth Distance (km) Brightness Sun altitude
Rises 00:43:05 0° 198° (SSW) 2,537 10.8 -11.3°
Reaches altitude 10° 00:45:29 10° 214° (SW) 1,654 10.1 -11.7°
Maximum altitude 00:48:18 22° 267° (W) 1,096 9.3 -12.1°
Drops below altitude 10° 00:51:06 10° 319° (NW) 1,643 9.5 -12.5°
Sets 00:53:30 0° 336° (NNW) 2,516 10.3 -12.8°
